This is the latest recevied weather packets stored in our database for station/object VA3BOO. If no packets are shown the sender has not sent any weather packets the latest 1 day(s).
| Time | Temp. | Humidity | Pressure | Rain* | Wind** | Luminosity | Snow |
|---|---|---|---|---|---|---|---|
| 1778069404 | 5.56° C | 95% | 1009.3 hPa | 1.27 mm | - | 42 W/m² | - |
| 1778069104 | 6.11° C | 96% | 1009.5 hPa | 1.27 mm | - | 37 W/m² | - |
| 1778068804 | 6.11° C | 96% | 1009.5 hPa | 1.27 mm | - | 38 W/m² | - |
| 1778068504 | 5.56° C | 96% | 1009.5 hPa | 1.27 mm | - | 39 W/m² | - |
| 1778067604 | 5.56° C | 97% | 1009.4 hPa | 1.27 mm | - | 33 W/m² | - |
| 1778062504 | 5.56° C | 97% | 1009.6 hPa | 1.78 mm | - | 3 W/m² | - |
| 1778061004 | 6.11° C | 97% | 1009.6 hPa | 1.78 mm | - | 0 W/m² | - |
| 1778059504 | 6.11° C | 97% | 1009.1 hPa | 2.29 mm | - | 0 W/m² | - |
| 1778058304 | 6.11° C | 97% | 1009.4 hPa | 2.29 mm | - | 0 W/m² | - |
| 1778057704 | 6.11° C | 97% | 1009.4 hPa | 2.03 mm | - | 0 W/m² | - |
| 1778056204 | 6.67° C | 97% | 1010.1 hPa | 1.02 mm | - | 0 W/m² | - |
| 1778055904 | 6.67° C | 97% | 1009.9 hPa | 0.76 mm | - | 0 W/m² | - |
| 1778055604 | 6.67° C | 97% | 1009.7 hPa | 0.76 mm | - | 0 W/m² | - |
| 1778053204 | 6.67° C | 97% | 1009.2 hPa | 0.25 mm | - | 0 W/m² | - |
| 1778051104 | 6.67° C | 97% | 1009.4 hPa | 0.76 mm | - | 0 W/m² | - |
| 1778048404 | 6.67° C | 97% | 1009.4 hPa | 2.29 mm | - | 0 W/m² | - |
| 1778048104 | 6.67° C | 97% | 1009.2 hPa | 2.03 mm | - | 0 W/m² | - |
| 1778047204 | 6.67° C | 97% | 1009.4 hPa | 1.52 mm | - | 0 W/m² | - |
| 1778046904 | 6.67° C | 97% | 1009.7 hPa | 1.02 mm | - | 0 W/m² | - |
| 1778040004 | 7.22° C | 96% | 1009.8 hPa | 0.51 mm | - | 0 W/m² | - |
| 1778036705 | 7.22° C | 94% | 1010.2 hPa | 0.25 mm | - | 0 W/m² | - |
| 1778035805 | 7.78° C | 94% | 1009.7 hPa | 0 mm | - | 0 W/m² | - |
| 1778035505 | 7.78° C | 94% | 1009.7 hPa | 0 mm | - | 0 W/m² | - |
| 1778034305 | 7.78° C | 94% | 1009.5 hPa | 0.25 mm | - | 0 W/m² | - |
| 1778034005 | 7.78° C | 94% | 1009.4 hPa | 0.25 mm | - | 0 W/m² | - |
* Rain latest hour (hover to see other rain measurements)
** Current wind speed in m/s (hover to see current wind gust speed)